Starlink 32332

operational
NORAD ID: 62490 Int'l Des: 2025-003 Owner: SPXS Country: US Constellation: starlink
LEOCIRCULAR

关于 Starlink 32332

正在加载描述...

实时位置

正在加载3D地球...

即将过境

高度历史

Altitude vs Time

uPlot chart will show altitude changes over time

两行轨道根数

1 62490U 25003D 25347.46736386 .00049287 00000-0 17857-2 0 9995
2 62490 43.0001 56.0245 0001483 287.8142 72.2548 15.27634579 53466
Epoch: Dec 13, 2025 • Age: 26 hours

当前状态

高度 491.4 km
速度 7.62 km/s
星下点 -34.62°S, 74.18°E
发射日期 Jan 6, 2025
运行时间 0.9 years
类型 internet

技术详情

分类 Payload
质量 730.00 kg
干质量 700.00 kg
总质量 730.00 kg
长度 0.30 m
直径 4.10 m
跨度 29.00 m
形状 Box + pan
制造商 SPXS
平台类型 Starlink V2M
阶段状态 In Orbit
所有者/国家 SPXS/US

大型星座

Loading constellations...